Location: La Comballaz
(46.3780°N, 7.0817°E)
Time: 03:51:14
(UTC+00:00)

IRIDIUM 114 - Pass Details

Date: 09 April 2020
Orbit: 776 x 779 km, 86.4° (Epoch: 26 May)

Event Time Altitude Azimuth Distance (km) Brightness Sun altitude
Rises 18:47:31 0° 356° (N) 3,275 7.9 -6.8°
Reaches altitude 10° 18:49:53 10° 356° (N) 2,342 7.1 -7.1°
Maximum altitude 18:55:08 87° 269° (W) 787 4.4 -8.0°
Drops below altitude 10° 19:00:21 10° 180° (S) 2,322 6.6 -8.8°
Sets 19:02:41 0° 180° (S) 3,245 7.3 -9.2°
